www.pogodaiklimat.ru

Погода и климат >> Архив погоды >> Дания >> Копенгаген


АРХИВ ПОГОДЫ в Копенгагене

Время (UTC), дата Ветер
(напр.,м/с)
 
Видим.   Явления Облачность Т
(С)
Тd
(С)
f
(%)
Тe
(С)
Тes
(С)
Комфортность P
(гПа)
Po
(гПа)
Тmin
(С)
Tmax
(С)
R
(мм)
R24
(мм)
S
(см)
22 17.03 ЮЗ 13 30 км слаб. морось 10/10 700 м
[]
+5.3 +2.1 80 -2 -2 тепло 993.9 993.3
23 17.03 ЮЗ 12 40 км в посл. час дождь {ливн. осадки} 10/10 500 м
[]
+5.1 +2.5 83 -2 -2 тепло 994.2 993.5 0.1
00 18.03 ЮЗ 10
{19}
45 км в посл. час осадки {ливн. осадки} 8/8 540 м
[]
+4.3 +2.7 89 -2 -2 по сезону 993.9 993.3 0.1
01 18.03 ЮЗ 11 40 км 9/9 600 м
[]
+4.9 +2.3 83 -2 -2 тепло 994.4 993.8
02 18.03 ЮЗ 11 35 км 8/8 600 м
[]
+5.0 +1.7 79 -2 -2 тепло 994.3 993.7
03 18.03 ЮЗ 12
{18}
35 км 9/9 720 м
[]
+4.8 +1.6 80 -2 -2 по сезону 994.2 993.6
04 18.03 ЮЗ 10 30 км {туман} 9/9 800 м
[]
+5.1 +2.0 80 -1 -1 тепло 993.9 993.3
05 18.03 ЮЗ 12 35 км в посл. час осадки {ливн. осадки} 10/10 700 м
[]
+5.1 +1.9 80 -2 -2 тепло 993.9 993.3
06 18.03 ЮЗ 11
{18}
40 км слаб. ливневой дождь 10/10 630 м
[]
+5.3 +1.7 78 -1 -1 по сезону 994.5 993.9 +4.1 +6.4
07 18.03 З 10 45 км {ливн. осадки} 9/9 660 м
[]
+5.3 +1.5 76 -1 -1 тепло 995.1 994.4 0.1
08 18.03 З 9 40 км 9/9 660 м
[]
+5.6 +1.1 73 -0 -0 тепло 996.0 995.4
09 18.03 З 9-15
{16}
35 км 10/10 800 м
[]
+5.8 +0.7 70 0 0 по сезону 997.1 996.5 0.1
10 18.03 З 8 40 км 10/10 800 м
[]
+6.9 +1.1 67 +2 +2 тепло 998.1 997.5
11 18.03 З 8 45 км слаб. ливневой дождь 10/10 750 м
[]
+6.7 +1.2 68 +2 +2 тепло 999.5 998.9
12 18.03 СЗ 9-15
{16}
45 км слаб. ливневой дождь 10/10 800 м
[]
+5.1 +1.1 75 -1 -1 по сезону 1001.4 1000.7
13 18.03 СЗ 7 >70 км в посл. час осадки {ливн. осадки} 10/10 1320 м
[]
+6.0 -1.3 59 +1 +1 тепло 1002.3 1001.7
14 18.03 СЗ 8 35 км слаб. дождь 10/10 720 м
[]
+4.7 +1.2 78 -1 -1 по сезону 1003.9 1003.2
15 18.03 З 5
{15}
>70 км в посл. час дождь {ливн. осадки} 9/9 1260 м
[]
+4.9 +1.7 80 +1 +1 по сезону 1004.8 1004.1 0.3
16 18.03 СЗ 7 65 км 4/0
[]
+6.0 -1.2 60 +1 +2 тепло 1005.8 1005.2
17 18.03 СЗ 7 >70 км ясно +5.5 -2.3 57 +1 +1 тепло 1007.0 1006.4
18 18.03 СЗ 5
{15}
>70 км 1/1 1500 м
[]
+4.9 -1.9 61 +1 +1 по сезону 1008.3 1007.6 +3.4 +8.2
19 18.03 СЗ 6 >70 км ясно +4.7 -1.7 63 0 0 тепло 1009.7 1009.0
20 18.03 СЗ 5 >70 км 5/5 1500 м
[]
+4.9 -1.5 63 +1 +1 тепло 1010.8 1010.2
21 18.03 СЗ 6 >70 км ясно +4.5 -1.3 66 -0 -0 по сезону 1012.0 1011.4
22 18.03 З 4 65 км ясно +3.4 -1.1 72 -1 -1 тепло 1013.2 1012.6
23 18.03 З 4 65 км ясно +1.5 -1.1 83 -3 -3 тепло 1014.0 1013.3
00 19.03 З 4 60 км ясно +1.9 -0.4 85 -3 -3 по сезону 1015.0 1014.4
01 19.03 З 4 65 км ясно +1.7 -0.5 85 -3 -3 тепло 1015.6 1015.0
02 19.03 СЗ 4 60 км ясно +2.3 +0.2 86 -3 -3 тепло 1016.2 1015.5
03 19.03 З 3 60 км ясно +1.4 -0.4 88 -3 -3 по сезону 1017.1 1016.5
04 19.03 З 3 60 км ясно +0.3 -1.5 88 -4 -4 тепло 1018.0 1017.3
05 19.03 СЗ 3 60 км 4/0 2000 м
[]
+0.9 -1.6 83 -4 -4 по сезону 1018.5 1017.9
06 19.03 СЗ 4 60 км 1/0 2000 м
[]
+1.7 -2.3 75 -3 -3 по сезону 1019.6 1019.0 -1.0 +5.4
07 19.03 СЗ 4 60 км 3/0 2000 м
[]
+3.0 -2.2 69 -1 -0 тепло 1020.5 1019.8
08 19.03 С 5 55 км ясно +4.8 -2.8 58 +1 +2 тепло 1021.2 1020.5
09 19.03 С 5-11
{11}
65 км ясно +5.7 -4.2 49 +2 +4 по сезону 1022.1 1021.4
10 19.03 СЗ 6 60 км ясно +6.1 -4.0 48 +2 +5 тепло 1022.9 1022.3
11 19.03 СЗ 7 >70 км 1/1 1410 м
[]
+6.6 -4.8 44 +2 +4 тепло 1023.4 1022.8
12 19.03 СЗ 7-13
{15}
>70 км ясно +6.9 -4.6 44 +3 +5 по сезону 1023.9 1023.2
13 19.03 СЗ 6 >70 км 3/3 1500 м
[]
+7.0 -4.3 44 +3 +5 тепло 1024.4 1023.7
14 19.03 СЗ 6 >70 км 1/1 1500 м
[]
+6.8 -4.7 44 +3 +4 тепло 1024.7 1024.1
15 19.03 СЗ 7
{12}
>70 км 1/1 1500 м
[]
+6.9 -5.4 41 +3 +4 по сезону 1025.2 1024.6
16 19.03 СЗ 6 >70 км ясно +6.3 -6.5 39 +3 +3 тепло 1025.6 1024.9
17 19.03 СЗ 4 >70 км ясно +5.7 -6.0 43 +2 +2 тепло 1026.1 1025.5
18 19.03 З 2
{12}
>70 км ясно +4.6 -5.8 47 +3 +3 тепло 1026.5 1025.8 +1.4 +8.0
19 19.03 З 1 >70 км ясно +4.1 -4.6 53 +3 +3 тепло 1027.2 1026.6
20 19.03 ЮЗ 2 >70 км ясно +1.6 -4.3 65 -1 -1 тепло 1027.4 1026.8
21 19.03 ЮЗ 3 >70 км ясно +2.2 -1.4 77 -2 -2 по сезону 1027.8 1027.1
22 19.03 ЮЗ 3 65 км ясно +2.1 -1.1 79 -2 -2 тепло 1027.8 1027.1
23 19.03 ЮЗ 3 55 км ясно +2.5 -0.3 82 -2 -2 тепло 1027.7 1027.1
00 20.03 З 3 50 км ясно +2.0 0.0 87 -2 -2 по сезону 1027.7 1027.1
01 20.03 ЮЗ 3 50 км ясно +0.6 -0.6 92 -4 -4 тепло 1027.6 1027.0
02 20.03 ЮЗ 4 45 км 9/0
[]
+2.0 +0.5 90 -3 -3 тепло 1027.7 1027.0
03 20.03 ЮЗ 4 50 км 8/0
[]
+2.5 +1.1 90 -2 -2 по сезону 1027.4 1026.7
04 20.03 ЮЗ 5 50 км 10/0
[]
+3.1 +1.5 89 -2 -2 тепло 1027.0 1026.4
05 20.03 ЮЗ 5 50 км 10/0
[]
+3.6 +2.0 89 -1 -1 тепло 1026.9 1026.3
06 20.03 ЮЗ 5 50 км 10/0 2000 м
[]
+4.3 +2.0 85 -1 -1 по сезону 1026.5 1025.8 0.0 +4.7
07 20.03 ЮЗ 6 40 км 9/9 1380 м
[]
+5.0 +2.7 85 0 0 тепло 1026.4 1025.7
08 20.03 ЮЗ 6 30 км слаб. ливневой дождь 10/10 960 м
[]
+5.5 +3.4 86 +1 +1 тепло 1026.4 1025.7
09 20.03 ЮЗ 7 24 км слаб. ливневой дождь 10/10 960 м
[]
+6.3 +4.2 86 +1 +1 по сезону 1026.0 1025.3 0.0
10 20.03 ЮЗ 8 21 км слаб. ливневой дождь 10/10 360 м
[]
+6.8 +4.8 87 +2 +2 тепло 1026.2 1025.6
11 20.03 ЮЗ 7 8000 м в посл. час осадки {ливн. осадки} 10/10 270 м
[]
+7.0 +5.5 90 +2 +2 тепло 1026.3 1025.7 0.1
12 20.03 ЮЗ 7 10 км слаб. ливневой дождь 10/10 180 м
[]
+7.7 +6.2 90 +3 +3 по сезону 1026.5 1025.8 0.1
13 20.03 З 6 9000 м слаб. ливневой дождь 10/10 240 м
[]
+7.9 +6.7 92 +4 +4 тепло 1026.4 1025.7
14 20.03 З 6 12 км в посл. час осадки {ливн. осадки} 10/10 240 м
[]
+8.4 +6.9 90 +4 +4 тепло 1026.7 1026.0 0.1
15 20.03 З 5 5000 м слаб. ливневой дождь 10/10 210 м
[]
+7.9 +7.3 96 +4 +4 тепло 1026.9 1026.3 0.2
16 20.03 З 5 20 км {ливн. осадки} 10/10 330 м
[]
+8.9 +7.5 91 +5 +5 тепло 1027.1 1026.5
17 20.03 ЮЗ 3 30 км 1/1 450 м
[]
+7.7 +6.3 91 +5 +5 тепло 1027.2 1026.6
18 20.03 З 4 26 км 9/9 1170 м
[]
+7.8 +6.4 91 +5 +5 тепло 1028.2 1027.5 +4.2 +9.4
19 20.03 З 4 30 км ясно +7.3 +6.1 92 +4 +4 тепло 1028.7 1028.0
20 20.03 З 3 28 км ясно +5.9 +4.9 93 +2 +2 тепло 1028.9 1028.3
21 20.03 З 3 20 км ясно +5.8 +5.2 96 +3 +3 тепло 1029.5 1028.9
22 20.03 З 4 16 км 9/9 180 м
[]
+6.1 +5.5 96 +2 +2 тепло 1029.8 1029.1
23 20.03 З 5 16 км 10/10 120 м
[]
+6.3 +5.9 97 +2 +2 тепло 1030.0 1029.4
00 21.03 ЮЗ 4 9000 м дымка 10/10 90 м
[]
+6.0 +5.7 98 +2 +2 тепло 1029.6 1028.9
01 21.03 ЮЗ 5 6000 м дымка 10/10 60 м
[]
+5.8 +5.6 99 +1 +1 тепло 1029.6 1028.9
02 21.03 ЮЗ 5 3600 м дымка 10/10 60 м
[]
+6.0 +5.9 99 +1 +1 тепло 1029.2 1028.6
03 21.03 ЮЗ 5 1100 м в посл. час туман 10/10 60 м
[]
+6.0 +6.0 100 +2 +2 тепло 1029.0 1028.4
04 21.03 ЮЗ 5 8000 м дымка 10/10 90 м
[]
+6.2 +6.1 99 +2 +2 тепло 1028.7 1028.1
05 21.03 ЮЗ 6 7000 м дымка 10/10 90 м
[]
+6.4 +6.2 99 +2 +2 тепло 1028.3 1027.7
06 21.03 ЮЗ 7 6000 м дымка 10/10 90 м
[]
+6.9 +6.7 99 +2 +2 по сезону 1028.4 1027.7 +5.1 +8.1
07 21.03 ЮЗ 7 3300 м дымка 10/10 60 м
[]
+7.1 +7.0 99 +2 +2 тепло 1028.3 1027.6 0.1
08 21.03 ЮЗ 8 5000 м дымка 10/10 120 м
[]
+7.9 +7.3 96 +3 +3 тепло 1028.5 1027.9
09 21.03 ЮЗ 7 6000 м дымка 10/10 150 м
[]
+8.1 +7.5 96 +3 +3 по сезону 1028.5 1027.9 0.2
10 21.03 З 7 8000 м дымка 10/10 150 м
[]
+8.9 +7.7 92 +5 +5 тепло 1028.6 1028.0
11 21.03 З 9 11 км 10/10 210 м
[]
+9.8 +8.0 89 +5 +5 тепло 1028.3 1027.7
12 21.03 ЮЗ 8 13 км 10/10 240 м
[]
+9.8 +7.7 87 +6 +6 тепло 1028.5 1027.8
13 21.03 ЮЗ 8 14 км 10/10 300 м
[]
+10.2 +8.1 87 +6 +6 тепло 1028.5 1027.8
14 21.03 ЮЗ 7 13 км 10/10 330 м
[]
+10.6 +8.2 85 +7 +7 тепло 1027.9 1027.3
15 21.03 ЮЗ 8 11 км {туман} 9/9 360 м
[]
+10.7 +8.3 85 +7 +7 тепло 1027.4 1026.7
18 21.03 ЮЗ 5 13 км 9/9 330 м
[]
+9.4 +7.7 89 +6 +6 тепло 1028.4 1027.8 +6.8 +11.6
20 21.03 З 6 15 км 10/10 360 м
[]
+9.3 +7.8 90 +6 +6 тепло 1029.4 1028.8
21 21.03 З 5 15 км 10/10 300 м
[]
+10.0 +8.0 87 +7 +7 тепло 1029.9 1029.3
22 21.03 З 6 19 км 10/10 300 м
[]
+9.5 +7.8 89 +6 +6 тепло 1030.2 1029.5
23 21.03 З 5 18 км 10/10 270 м
[]
+9.3 +7.6 89 +6 +6 тепло 1030.4 1029.8
00 22.03 СЗ 5 28 км 9/9 270 м
[]
+8.9 +7.3 90 +5 +5 тепло 1030.3 1029.7
01 22.03 З 5 40 км 8/8 330 м
[]
+8.3 +6.6 89 +5 +5 тепло 1030.9 1030.3
02 22.03 СЗ 4 50 км 10/10 360 м
[]
+8.3 +6.0 85 +5 +5 тепло 1031.8 1031.1
03 22.03 СЗ 3 55 км 9/9 420 м
[]
+7.2 +4.9 85 +4 +4 тепло 1031.8 1031.1
04 22.03 СЗ 2 40 км 9/9 400 м
[]
+7.0 +5.1 88 +5 +5 тепло 1032.3 1031.7
05 22.03 СВ 2 35 км 9/9 330 м
[]
+6.8 +5.1 89 +5 +5 тепло 1032.8 1032.2
06 22.03 З 1 30 км 10/10 300 м
[]
+6.5 +5.3 92 +6 +6 тепло 1032.8 1032.1 +6.0 +10.3
07 22.03 З 1 35 км 10/10 300 м
[]
+6.7 +4.8 88 +6 +6 тепло 1032.9 1032.2
08 22.03 Ю 3 35 км 10/10 300 м
[]
+6.4 +4.4 87 +4 +4 тепло 1033.2 1032.6
09 22.03 Ю 2 40 км 10/10 300 м
[]
+6.8 +4.5 85 +5 +5 тепло 1033.7 1033.0
10 22.03 ЮВ 3 40 км 9/9 330 м
[]
+7.4 +4.9 84 +5 +5 тепло 1033.6 1033.0
11 22.03 Ю 4 40 км 10/10 400 м
[]
+7.1 +4.9 86 +4 +4 тепло 1033.2 1032.6
12 22.03 Ю 5 35 км 10/10 330 м
[]
+7.1 +4.9 86 +3 +3 по сезону 1033.1 1032.4
13 22.03 ЮВ 5 35 км 10/10 360 м
[]
+7.0 +4.7 85 +3 +3 тепло 1032.7 1032.0
14 22.03 ЮВ 4 35 км 10/10 330 м
[]
+7.0 +4.9 86 +4 +4 тепло 1032.0 1031.3
15 22.03 Ю 5 11 км 10/10 180 м
[]
+6.4 +5.4 93 +2 +2 по сезону 1031.0 1030.4
16 22.03 Ю 5 2900 м слаб. ливневой дождь 10/10 60 м
[]
+5.9 +5.8 99 +1 +1 тепло 1030.3 1029.7
17 22.03 Ю 6 3500 м слаб. ливневой дождь 10/10 60 м
[]
+5.8 +5.7 99 +1 +1 тепло 1029.7 1029.1
18 22.03 Ю 6 7000 м в посл. час осадки {ливн. осадки} 10/10 60 м
[]
+5.9 +5.8 99 +1 +1 по сезону 1029.1 1028.5 +5.6 +8.0
19 22.03 Ю 5 6000 м дымка {ливн. осадки} 10/10 90 м
[]
+6.1 +5.8 98 +1 +1 тепло 1028.8 1028.1
20 22.03 Ю 6 3400 м морось {ливн. осадки} 10/10 60 м
[]
+6.1 +5.9 99 +1 +1 тепло 1028.3 1027.7 0.2
21 22.03 Ю 5 6000 м дымка {ливн. осадки} 10/10 60 м
[]
+6.1 +6.0 99 +1 +1 по сезону 1027.7 1027.1 0.2
22 22.03 Ю 5 9000 м дымка 10/10 270 м
[]
+6.3 +6.0 98 +2 +2 тепло 1026.8 1026.2
23 22.03 Ю 4 10 км 10/10 150 м
[]
+6.8 +6.4 97 +3 +3 тепло 1026.1 1025.4
00 23.03 Ю 3 6000 м дымка 10/10 90 м
[]
+5.8 +5.7 99 +3 +3 тепло 1025.3 1024.6
01 23.03 Ю 5 8000 м дымка 9/9 150 м
[]
+6.1 +5.9 99 +2 +2 тепло 1024.4 1023.7
02 23.03 Ю 4 5000 м дымка 10/10 120 м
[]
+5.4 +5.3 99 +1 +1 тепло 1023.7 1023.1
03 23.03 ЮЗ 3 5000 м дымка 10/10 210 м
[]
+6.4 +6.2 99 +3 +3 тепло 1023.4 1022.8
04 23.03 ЮЗ 5 4300 м дымка 10/10 120 м
[]
+7.6 +7.1 97 +3 +3 тепло 1023.3 1022.6
05 23.03 З 5 6000 м дымка 10/10 300 м
[]
+7.4 +6.4 93 +3 +3 тепло 1022.9 1022.3
06 23.03 З 3 4200 м дымка ясно +6.3 +5.8 97 +3 +3 тепло 1023.3 1022.7 +4.6 +7.9
07 23.03 З 5 7000 м дымка 9/9 240 м
[]
+7.0 +5.8 92 +3 +3 тепло 1023.7 1023.0
08 23.03 З 5 8000 м дымка 10/10 240 м
[]
+7.8 +6.4 91 +4 +4 тепло 1023.6 1023.0
09 23.03 З 6 11 км {дымка} 10/10 270 м
[]
+8.1 +6.3 88 +4 +4 по сезону 1024.0 1023.3
10 23.03 З 7 17 км 9/9 400 м
[]
+9.5 +5.4 76 +6 +6 тепло 1024.5 1023.9
11 23.03 З 7 27 км 9/9 570 м
[]
+9.9 +5.3 73 +6 +7 тепло 1024.5 1023.8
12 23.03 З 6 30 км 9/9 700 м
[]
+10.8 +4.6 66 +8 +8 тепло 1024.9 1024.3
13 23.03 СЗ 7 40 км 1/1 1000 м
[]
+11.4 +1.5 51 +9 +10 тепло 1025.4 1024.7
14 23.03 З 7 40 км 3/3 1000 м
[]
+10.2 +1.6 55 +7 +8 тепло 1025.6 1025.0
15 23.03 СЗ 8 35 км 8/8 1080 м
[]
+10.2 +2.1 57 +7 +7 тепло 1025.7 1025.1
16 23.03 СЗ 8 45 км ясно +9.9 -0.6 48 +6 +7 тепло 1026.0 1025.4
17 23.03 СЗ 6 50 км ясно +9.0 -0.6 51 +6 +6 тепло 1026.6 1025.9
18 23.03 СЗ 5
{12}
60 км 4/0
[]
+7.9 -0.6 55 +5 +5 тепло 1027.1 1026.4 +6.2 +12.3
19 23.03 З 5 55 км ясно +6.7 -0.4 60 +3 +3 тепло 1027.6 1027.0
20 23.03 З 5 55 км ясно +6.0 -0.7 62 +2 +2 тепло 1027.8 1027.1
21 23.03 З 5 45 км ясно +5.5 +0.2 69 +1 +1 по сезону 1027.9 1027.3
22 23.03 З 5 40 км ясно +4.9 +0.3 72 0 0 тепло 1028.0 1027.3
23 23.03 З 5 40 км ясно +4.8 +0.7 75 0 0 тепло 1027.8 1027.1
00 24.03 З 5 35 км ясно +4.5 +1.2 79 -0 -0 по сезону 1027.9 1027.2
01 24.03 З 5 35 км ясно +4.3 +1.7 83 -0 -0 тепло 1027.5 1026.8
02 24.03 З 5 30 км ясно +3.8 +1.6 86 -1 -1 тепло 1027.3 1026.6
03 24.03 З 5 30 км ясно +3.8 +2.0 88 -1 -1 по сезону 1027.2 1026.6
04 24.03 З 5 28 км ясно +4.0 +2.2 88 -1 -1 тепло 1026.9 1026.2
05 24.03 З 5 29 км 3/0
[]
+4.1 +2.2 87 -1 -1 тепло 1026.8 1026.2
06 24.03 З 5 25 км 1/0
[]
+3.9 +2.5 91 -1 -1 по сезону 1026.7 1026.1 +3.6 +8.1
07 24.03 З 5 23 км ясно +4.5 +3.0 90 -1 +1 тепло 1026.4 1025.7
08 24.03 З 5 23 км 4/4 270 м
[]
+4.8 +3.1 89 0 +2 тепло 1026.2 1025.6
09 24.03 З 4 26 км 1/1 300 м
[]
+5.9 +3.3 83 +2 +6 по сезону 1025.8 1025.2
10 24.03 З 5 26 км 5/5 360 м
[]
+6.4 +3.6 82 +2 +4 тепло 1025.2 1024.6
11 24.03 З 5 30 км 5/5 540 м
[]
+8.6 +2.9 67 +5 +7 тепло 1024.5 1023.8
12 24.03 З 5 35 км 9/9 840 м
[]
+9.2 +1.5 59 +6 +7 по сезону 1023.3 1022.6
13 24.03 ЮЗ 7 45 км 5/5 1020 м
[]
+9.1 +1.0 57 +6 +7 тепло 1022.5 1021.8
14 24.03 ЮЗ 6 50 км 1/1 1500 м
[]
+9.2 +0.2 53 +6 +7 тепло 1021.6 1021.0
15 24.03 З 8 55 км 3/3 1470 м
[]
+8.9 -1.3 49 +5 +5 тепло 1020.4 1019.8
16 24.03 ЮЗ 5 50 км 6/6 1470 м
[]
+8.6 -0.3 54 +5 +6 тепло 1019.4 1018.8
17 24.03 ЮЗ 6 45 км 5/5 1380 м
[]
+6.8 +2.1 72 +2 +2 тепло 1018.7 1018.1
18 24.03 ЮЗ 6 45 км 8/8 1260 м
[]
+6.5 +2.1 73 +2 +2 по сезону 1017.8 1017.2 +3.9 +10.6
19 24.03 ЮЗ 5 55 км {ливн. осадки} 8/8 1300 м
[]
+5.9 +1.7 74 +2 +2 тепло 1017.1 1016.5
20 24.03 З 6 55 км 9/9 1500 м
[]
+5.8 +0.8 70 +1 +1 тепло 1016.3 1015.7
21 24.03 ЮЗ 6 50 км 1/0 2000 м
[]
+4.7 +1.2 78 -1 -1 по сезону 1015.4 1014.7

 

Местоположение метеостанции Копенгаген (Дания): широта 55.62 долгота 12.65 высота над уровнем моря 5 м.

В архиве по умолчанию представлена погода в Копенгагене за последнюю неделю. Архивные данные за месяц целиком и за предыдущие месяцы, начиная с января 2011 года, Вы можете получить, выбрав интересующий диапазон дат из раскрывающегося списка и нажав кнопку "Ввод!".


*Определитесь, кто Вы:
робот инопланетянин человек

Внимание! Время в таблицах - всемирное. Для получения местного времени необходимо прибавить поправку, которая равна 1 ч.

Смотрите также архив погоды в соседних городах и на ближайших метеорологических станциях:

Погода на Дрогдене (Дания) (11 км)
Погода в Копенгагене Jaegers (Дания) (17 км)
Погода в Мальмё (Швеция) (27 км)
Погода в Фальстербу АМС (Швеция) (29 км)
Погода в Фальстербу (Швеция) (29 км)
Погода в Сяелсмарке (Дания) (33 км)
Погода в Роскилле (Дания) (33 км)
Погода в Кёге (Дания) (40 км)
Погода в Мальмё аэропорту (Швеция) (46 км)
Погода в Хельсингборге (Швеция) (46 км)

Пояснения к столбцам:

Ветер - указаны скорость ветра в м/с - средняя за 10 мин, порывы в срок и между сроками (в фигурных скобках) и направление, откуда дует ветер: С - северный, СВ - северо-восточный, В - восточный, ЮВ - юго-восточный, Ю - южный, ЮЗ - юго-западный, З - западный, СЗ - северо-западный.
Видимость - горизонтальная дальность видимости в метрах или километрах. При видимости от 1 до 10 км при отсутствии осадков обычно наблюдается дымка, при ухудшении видимости до 1 км и менее - туман. В сухую погоду видимость может ухудшаться дымом, пылью или мглою.
Явления - указаны атмосферные явления, наблюдавшиеся в срок или в последний час перед сроком; фигурными скобками обозначены явления, наблюдавшиеся между сроками (за 1-3 часа до срока); квадратными скобками обозначены град или гололедные отложения с указанием их диаметра в мм.
Облачность - указаны через наклонную черту общая и нижняя облачность в баллах и высота нижней границы облаков в метрах; квадратными скобками обозначены формы облаков: Ci - перистые, Cs - перисто-слоистые, Cc - перисто-кучевые, Ac - высококучевые, As - высокослоистые, Sc - слоисто-кучевые, Ns - слоисто-дождевые, Cu - кучевые, Cb - кучево-дождевые. Подробнее классификацию облаков см. в Атласе облаков (PDF).
T - Температура воздуха - температура, измеренная на высоте 2 м над землей.
Td - Температура точки росы - температура, при понижении до которой содержащийся в воздухе водяной пар достигнет насыщения.
f - Относительная влажность воздуха - влажноcть воздуха, измеренная на высоте 2 м над землей.
Te - Эффективная температура - температура, которую ощущает одетый по сезону человек в тени. Характеристика душности погоды. При расчете учитывается влияние влажности воздуха и скорости ветра на теплоощущения человека.
Tes - Эффективная температура на солнце - температура, которую ощущает человек, с поправкой на солнечный нагрев. Характеристика знойности погоды. Зависит от высоты солнца над горизонтом, облачности и скорости ветра. Ночью, в пасмурную погоду, а также при ветре 12 м/с и более поправка равна нулю.
P - Атмосферное давление - приведенное к уровню моря атмосферное давление.
Po - Атмосферное давление - измеренное на уровне метеостанции атмосферное давление.
Tmin - Минимальная температура - минимум температуры воздуха на высоте 2 м над землей.
Tmax - Максимальная температура - максимум температуры воздуха на высоте 2 м над землей.
R - Количество осадков - Количество выпавших осадков за период времени, мм. При наведении курсора мыши на число - период времени, за который выпало указанное количество осадков.
R24 - Количество осадков - Количество выпавших осадков за 24 часа, мм.
S - Снежный покров - Высота снежного покрова, см. При наведении курсора мыши на число - состояние снежного покрова и степень покрытия местности в баллах.